Regional Weather Roundup
Issued by NWS Midland/Odessa, TX

Skip options and go directly to product.
Home | Oldest Version | Previous Version | Current Version | All | Text Only | Save Text | Print | Product List | Glossary Off

Skip product version selection by date and time.   

093
ASUS44 KMAF 271810
RWRMAF
MIDLAND AREA WEATHER ROUNDUP
NATIONAL WEATHER SERVICE MIDLAND TX
100 PM CDT WED AUG 27 2014

...IN SOUTHWEST TEXAS AND SOUTHEAST NEW MEXICO...

CITY           SKY/WX    TMP DP  RH WIND       PRES   REMARKS
ALPINE         FAIR      87  51  28 NE8       30.28S
ANDREWS        FAIR      90  56  31 W3        30.14F
ARTESIA        NOT AVBL
BIG SPRING     FAIR      94  57  28 CALM      30.13F
CARLSBAD       PTSUNNY   78  62  57 NW8       30.16F
DRYDEN           N/A     96  61  31 E5        30.07F
FORT STOCKTON  FAIR      89  56  32 S3        30.13F
GUAD PASS      CLOUDY    79  58  48 SW12      30.31F
HOBBS          SUNNY     86  54  32 S10       30.18F
MARFA          FAIR      82  54  36 S5        30.28S
MIDLAND AIRPK  FAIR      92  56  30 N3        30.13F
MIDLAND INTL   FAIR      91  59  33 S8        30.12F
ODESSA         FAIR      89  57  33 VRB7      30.14F
PECOS          FAIR      88  58  36 CALM      30.10F
PRESIDIO       FAIR      91  55  28 CALM      30.11F
SEMINOLE       FAIR      90  53  28 SW10      30.16F
SNYDER         FAIR      91  62  38 W5        30.11F
WINK           FAIR      95  51  22 S10       30.10F
$$
...OTHER STATIONS IN TEXAS...

CITY           SKY/WX    TMP DP  RH WIND       PRES   REMARKS
ABILENE        PTSUNNY   90  64  42 SW8       30.08F
AMARILLO       PTSUNNY   79  65  62 S9        30.17F
AUSTIN         PTSUNNY   91  67  44 NE5       30.02F
BROWNSVILLE    FAIR      96  72  45 N9        29.93F HX 104
CORPUS CHRISTI PTSUNNY   94  69  44 NE12      29.95F
DALLAS FTW     FAIR      91  68  46 E6G18     30.05F
DEL RIO        FAIR      93  67  42 S8        30.01F
EL PASO        MOSUNNY   80  63  55 N7        30.20F
HOUSTON INT    PTSUNNY   93  70  46 E8        29.99F
LUBBOCK        FAIR      91  58  32 W14G20    30.14F
SAN ANGELO     FAIR      91  65  41 CALM      30.08F
SAN ANTONIO    PTSUNNY   92  67  43 E6G17     30.03F
WACO           PTSUNNY   90  65  43 SE7       30.03F
WICHITA FALLS  NOT AVBL
$$
...OTHER LOCATIONS IN NEW MEXICO...

CITY           SKY/WX    TMP DP  RH WIND       PRES   REMARKS
ALAMAGORDO     PTSUNNY   72  63  73 CALM      30.25S
ALBUQUERQUE    MOSUNNY   72  54  53 W5        30.31F
CANNON AFB     PTSUNNY   79  60  52 SW7       30.21S
CLOVIS           N/A     81  57  44 S6        30.22F
HOLLOMAN AFB   MOSUNNY   74  63  69 VRB3      30.22F
ROSWELL        PTSUNNY   78  61  55 S3        30.18F
RUIDOSO        MOSUNNY   70  55  60 S3        30.39F
SANTA FE       SUNNY     71  54  54 VRB7      30.33F
TRUTH OR CONSE SUNNY     74  60  61 VRB3      30.27F
TUCUMCARI      LGT RAIN  81  59  47 W10       30.17F
$$

USA.gov is the U.S. government's official web portal to all federal, state and local government web resources and services.